This is the latest recevied weather packets stored in our database for station/object TA2LKM-12. If no packets are shown the sender has not sent any weather packets the latest 1 day(s).
| Time | Temp. | Humidity | Pressure | Rain* | Wind** | Luminosity | Snow |
|---|---|---|---|---|---|---|---|
| 1778036404 | 8.33° C | 99% | - | - | 0 m/s | - | - |
| 1778034605 | 8.33° C | 95% | - | - | 0 m/s | - | - |
| 1778032806 | 7.78° C | 89% | - | - | 0 m/s | - | - |
| 1778031006 | 6.67° C | 89% | - | - | 0 m/s | - | - |
| 1778029203 | 7.22° C | 89% | - | - | 0 m/s | - | - |
| 1778027406 | 7.22° C | 10% | - | - | 0 m/s | - | - |
| 1778025605 | 7.78° C | 89% | - | - | 0 m/s | - | - |
| 1778023803 | 8.33° C | 88% | - | - | 0 m/s | - | - |
| 1778022002 | 9.44° C | 89% | - | - | 0 m/s | - | - |
| 1778020216 | 10.56° C | 88% | - | - | 0 m/s | - | - |
| 1778018404 | 11.11° C | 85% | - | - | 0 m/s | - | - |
| 1778016603 | 11.67° C | 83% | - | - | 0 m/s | - | - |
| 1778014805 | 11.67° C | 83% | - | - | 0 m/s | - | - |
| 1778013004 | 11.67° C | 83% | - | - | 0 m/s | - | - |
| 1778011203 | 12.22° C | 80% | - | - | 0 m/s | - | - |
| 1778009403 | 12.78° C | 79% | - | - | 0 m/s | - | - |
| 1778007605 | 12.78° C | 78% | - | - | 0 m/s | - | - |
| 1778005805 | 12.78° C | 84% | - | - | 0 m/s | - | - |
| 1778004004 | 12.78° C | 75% | - | - | 0 m/s | - | - |
| 1778002203 | 12.78° C | 74% | - | - | 0 m/s | - | - |
| 1778000405 | 13.33° C | 70% | - | - | 0 m/s | - | - |
| 1777998603 | 14.44° C | 63% | - | - | 0 m/s | - | - |
| 1777996803 | 15.56° C | 60% | - | - | 0 m/s | - | - |
| 1777995005 | 15.56° C | 60% | - | - | 0 m/s | - | - |
| 1777993205 | 16.11° C | 57% | - | - | 0 m/s | - | - |
* Rain since midnight (hover to see other rain measurements)
** Current wind speed in m/s (hover to see current wind gust speed)